| Shipment Reliability and Frequency | Volume of Goods |
|---|---|
| Avg. Shipments per Month: 3.83 | Average TEU per month: 7.67 |
| Active Months: 4 | Average TEU per Shipment: 2.00 |
| Shipment Frequency Std. Dev.: 7.16 |
| Company Name | Shipments |
|---|---|
| VISA FRUIT LLC | 36 shipments |
| SOL GROUP | 14 shipments |
| AYCO FARMS INC | 8 shipments |
| TOMASINO FARMS INC | 1 shipments |
| HS Code | Shipments |
|---|---|
| 071410 Vegetable roots and tubers; manioc (cassava), with high starch or inulin content, fresh, chilled, frozen or dried, whether or not sliced or in the form of pellets | 18 shipments |
| 81090.0 Zirconium; articles thereof, including waste and scrap | 14 shipments |
| 081090 Fruit, edible; fruits n.e.c. in heading no. 0801 to 0810, fresh | 10 shipments |
| 080430 Fruit, edible; pineapples, fresh or dried | 8 shipments |
| 731010.0 Tanks, casks, drums, cans, boxes and similar containers, for any material (excluding compressed or liquefied gas), of iron or steel, capacity not exceeding 300l, whether or not lined or heat-insulated | 6 shipments |
| 731010 Tanks, casks, drums, cans, boxes and similar containers, for any material (excluding compressed or liquefied gas), 50l or more capacity but not exceeding 300l | 2 shipments |
| 71410.0 | 1 shipments |
| Arrival Date | Bill Of Lading | Consignee | Weight | HS Code | Description |
|---|---|---|---|---|---|
| 2026-07-30 | MAEU274451103 | VISA FRUIT LLC | 23505.55 kg | 071410 | FRESH PINNEAPLE FRESH CASSAVA |
| 2026-07-17 | MAEU272940331 | VISA FRUIT LLC | 23505.55 kg | 071410 | FRESH PINNEAPLE FRESH CASSAVA |
| 2026-07-03 | MAEU272308925 | VISA FRUIT LLC | 23805.38 kg | 071410 | FRESH PINNEAPLE FRESH CASSAVA |
| 2026-06-26 | MAEU271956938 | VISA FRUIT LLC | 22680.45 kg | 080430 | FRESH PINEAPPLE |
| 2026-06-26 | MAEU272006599 | VISA FRUIT LLC | 22680.45 kg | 080430 | FRESH PINEAPPLE |
| 2026-06-26 | MAEU271956999 | VISA FRUIT LLC | 22680.45 kg | 080430 | FRESH PINEAPPLE |
| 2026-06-26 | MAEU271957047 | VISA FRUIT LLC | 22680.45 kg | 080430 | FRESH PINEAPPLE |
| 2026-06-26 | MAEU271956968 | VISA FRUIT LLC | 22680.45 kg | 080430 | FRESH PINEAPPLE |
| 2026-06-26 | MAEU272127737 | VISA FRUIT LLC | 22680.45 kg | 080430 | FRESH PINEAPPLE |
| 2026-06-26 | MAEU272131267 | VISA FRUIT LLC | 22680.45 kg | 080430 | FRESH PINEAPPLE |
| 2026-06-26 | MAEU272127801 | VISA FRUIT LLC | 22680.45 kg | 080430 | FRESH PINEAPPLE |
| 2026-06-04 | MAEU271108291 | VISA FRUIT LLC | 23805.38 kg | 071410 | FRESH PINNEAPLE FRESH CASSAVA |
| 2026-05-11 | MAEU269761171 | SOL GROUP | 22680.45 kg | 081090 | FRESH PINNEAPLE |
| 2026-05-11 | MAEU269761192 | SOL GROUP | 22680.45 kg | 081090 | FRESH PINNEAPLE |
| 2026-05-11 | MAEU269761222 | SOL GROUP | 22680.45 kg | 081090 | FRESH PINNEAPLE |
| 2026-05-08 | MAEU270155368 | VISA FRUIT LLC | 23805.38 kg | 071410 | FRESH PINNEAPLE FRESH CASSAVA |
| 2026-05-08 | MAEU269760200 | VISA FRUIT LLC | 22680.45 kg | 081090 | FRESH PINNEAPLES |
| 2026-05-08 | MAEU269760179 | VISA FRUIT LLC | 22680.45 kg | 081090 | FRESH PINNEAPLE |
| 2026-05-04 | MAEU269689397 | SOL GROUP | 22680.45 kg | 081090 | FRESH PINNEAPLE |
| 2026-05-04 | MAEU269689474 | SOL GROUP | 22680.45 kg | 081090 | FRESH PINNEAPLE |
| 2026-05-01 | MAEU269507382 | VISA FRUIT LLC | 24290.28 kg | 081090 | FRESH PINNEAPLE |
| 2026-05-01 | MAEU269507474 | VISA FRUIT LLC | 22680.45 kg | 081090 | FRESH PINNEAPLE |
| 2026-05-01 | MAEU269695069 | VISA FRUIT LLC | 22680.45 kg | 081090 | FRESH PINNEAPLE |
| 2026-04-30 | SMLU9045393A | AYCO FARMS INC | 22680.0 kg | 731010 | BOXES WITH TEMP +F FRESH PINEAPPLE HS CODE REEFER SETTINGS TEMP +F VENT % FLOOR DRAINS OPEN. |
| 2026-04-30 | SMLU9045404A | AYCO FARMS INC | 22680.0 kg | 731010 | BOXES WITH TEMP +F FRESH PINEAPPLE HS CODE REEFER SETTINGS TEMP +F VENT % FLOOR DRAINS OPEN. |
| 2026-04-27 | MAEU269324845 | SOL GROUP | 22680.45 kg | 81090.0 | FRESH PINNEAPLE |
| 2026-04-27 | MAEU269324861 | SOL GROUP | 22680.45 kg | 81090.0 | FRESH PINNEAPLE |
| 2026-04-27 | MAEU269324835 | SOL GROUP | 22680.45 kg | 81090.0 | FRESH PINNEAPLE |
| 2026-04-24 | MAEU269264918 | VISA FRUIT LLC | 22680.45 kg | 81090.0 | FRESH PINNEAPLE |
| 2026-04-24 | MAEU269265011 | VISA FRUIT LLC | 22680.45 kg | 81090.0 | FRESH PINNEAPLE |
| 2026-04-24 | MAEU269265024 | VISA FRUIT LLC | 22680.45 kg | 81090.0 | FRESH PINNEAPLE |
| 2026-04-24 | MAEU269265034 | VISA FRUIT LLC | 22680.45 kg | 81090.0 | FRESH PINNEAPLE |
| 2026-04-24 | MAEU269265039 | VISA FRUIT LLC | 22680.45 kg | 81090.0 | FRESH PINNEAPLE |
| 2026-04-23 | SMLU9036090A | AYCO FARMS INC | 22680.0 kg | 731010.0 | BOXES WITH TEMP +F FRESH PINEAPPLE HS CODE REEFER SETTINGS TEMP +F VENT % FLOOR DRAINS OPEN. |
| 2026-04-23 | SMLU9036091A | AYCO FARMS INC | 22680.0 kg | 731010.0 | BOXES WITH TEMP +F FRESH PINEAPPLE HS CODE REEFER SETTINGS TEMP +F VENT % FLOOR DRAINS OPEN. |
| 2026-04-20 | MAEU268873003 | SOL GROUP | 22680.45 kg | 81090.0 | FRESH PINNEAPLE |
| 2026-04-20 | MAEU268873055 | SOL GROUP | 22680.45 kg | 81090.0 | FRESH PINNEAPLE PO |
| 2026-04-20 | MAEU268873104 | SOL GROUP | 22680.45 kg | 81090.0 | FRESH PINNEAPLE PO |
| 2026-04-19 | MAEU269076123 | VISA FRUIT LLC | 23505.55 kg | 71410.0 | FRESH PINEAPPLE FRESH CASSAVA |
| 2026-04-16 | SMLU9025721A | AYCO FARMS INC | 22680.0 kg | 731010.0 | BOXES WITH TEMP +F FRESH PINEAPPLE HS CODE REEFER SETTINGS TEMP +F VENT % FLOOR DRAINS OPEN. |
| 2026-04-16 | SMLU9025722A | AYCO FARMS INC | 22680.0 kg | 731010.0 | BOXES WITH TEMP +F FRESH PINEAPPLE HS CODE REEFER SETTINGS TEMP +F VENT % FLOOR DRAINS OPEN. |
| 2026-04-13 | MAEU268620969 | SOL GROUP | 22680.45 kg | 81090.0 | FRESH PINNEAPLE |
| 2026-04-13 | MAEU268736362 | SOL GROUP | 22680.45 kg | 81090.0 | FRESH PINNEAPLE |
| 2026-04-13 | MAEU268736385 | SOL GROUP | 22680.45 kg | 81090.0 | FRESH PINNEAPLE |
| 2026-04-09 | SMLU9012545A | AYCO FARMS INC | 22680.0 kg | 731010.0 | BOXES WITH TEMP +F FRESH PINEAPPLE HS CODE REEFER SETTINGS TEMP +F VENT % FLOOR DRAINS OPEN. |
| 2026-04-09 | SMLU9012546A | AYCO FARMS INC | 22680.0 kg | 731010.0 | BOXES WITH TEMP +F FRESH PINEAPPLE HS CODE REEFER SETTINGS TEMP +F VENT % FLOOR DRAINS OPEN. |
| 2024-11-19 | SMLU8319963A | VISA FRUIT LLC | 23562.25 kg | 071410 | BOXES WITH FRESH CASSAVA |
| 2024-11-12 | SMLU8308124A | VISA FRUIT LLC | 23562.25 kg | 071410 | BOXES WITH FRESH CASSAVA |
| 2024-09-24 | SMLU8229664A | VISA FRUIT LLC | 23562.25 kg | 071410 | BOXES WITH FRESH CASSAVA |
| 2024-09-03 | SMLU8196469A | VISA FRUIT LLC | 22440.05 kg | 071410 | TOTAL AS FOLLOWS 660 BOXES WITH FRESH CASSAVA 880 BOXES FRESH PINEAPPLE |